Hourly Data Report for October 03, 2017

All times are specified in Local Standard Time (LST). Add 1 hour to adjust for Daylight Saving Time where and when it is observed.

PAULATUK
NORTHWEST TERRITORIES

69°21'28.004" N
124°04'57.005" W
6.30 m
2203058
71984
ZPK

Download Data

Hourly Data (October 2017)
Hourly Data Report for October 3, 2017
Temp Definition
°C
Dew Point Temp Definition
°C
Rel Hum Definition
%
Wind Dir Definition
10's deg

Wind Spd Definition
km/h
Visibility Definition
km
Stn Press Definition
kPa
Hmdx Definition


Wind Chill Definition


Weather Definition


TIME
00:00 -3.6 -5.5 87 13 9   102.00   -7 LegendNANA
01:00 -4.1 -5.9 88 14 11   101.95   -9 LegendNANA
02:00 -4.4 -6.1 88 13 5   101.93   -7 LegendNANA
03:00 -4.5 -5.9 90 8 4   101.96   -6 LegendNANA
04:00 -5.0 -7.2 84 11 9   101.91   -9 LegendNANA
05:00 -5.4 -7.5 85 12 8   101.91   -9 LegendNANA
06:00 -5.6 -7.7 85 9 7   101.88   -9 LegendNANA
07:00 -5.3 -7.0 88 12 7   101.86   -9 LegendNANA
08:00 -4.7 -6.8 85 12 6   101.88   -7 LegendNANA
09:00 -4.4 -7.0 82 10 7   101.87   -8 LegendNANA
10:00 -3.7 -6.7 79 14 5   101.92   -6 LegendNANA
11:00 -3.3 -7.4 73 6 4   101.95   -5 LegendNANA
12:00 -2.7 -7.0 72 7 7   101.95   -6 LegendNANA
13:00 -2.0 -6.4 72 10 8   101.97   -5 LegendNANA
14:00 -1.6 -6.7 68 10 4   102.00   -3 LegendNANA
15:00 -1.4 -6.3 69 8 6   102.02   -4 LegendNANA
16:00 -1.8 -5.5 76 6 7   102.02   -4 LegendNANA
17:00 -2.0 -4.9 80 8 8   102.07   -5 LegendNANA
18:00 -2.7 -4.6 87 9 9   102.08   -6 LegendNANA
19:00 -3.3 -5.5 85 12 6   102.10   -6 LegendNANA
20:00 -3.5 -5.6 86 13 6   102.10   -6 LegendNANA
21:00 -4.4 -6.0 89 9 9   102.11   -8 LegendNANA
22:00 -5.0 -6.4 90 9 5   102.12   -7 LegendNANA
23:00 -4.8 -6.3 89 12 7   102.13   -8 LegendNANA

Notes on Data Quality.

Legend

  • E = Estimated
  • M = Missing
  • NA = Not Available
  • ‡ = Partner data that is not subject to review by the National Climate Archives
Date modified: